Weather History for Point Pleasant, WV

Change the Weather History Date:

Monday, January 13, 2014

  Actual Average (KHTS) Record (KHTS)
Temperature  
Mean Temperature 44 °F 34 °F  
Max Temperature 57 °F 42 °F 75 °F (2005)
Min Temperature 32 °F 25 °F -12 °F (1912)
Degree Days  
Heating Degree Days 20 32  
Month to date heating degree days 405  
Since 1 July heating degree days 2160  
Cooling Degree Days 0 0  
Month to date cooling degree days 0  
Year to date cooling degree days 0  
Moisture  
Dew Point 37 °F    
Average Humidity 77    
Maximum Humidity 93    
Minimum Humidity 41    
Precipitation  
Precipitation 0.00 in 0.10 in 1.46 in (1899)
Month to date precipitation 1.24  
Year to date precipitation 1.24  
Snow  
Snow 0.00 in - - ()
Month to date snowfall  
Since 1 September snowfall  
Snow Depth -    
Sea Level Pressure  
Sea Level Pressure 29.88 in    
Wind  
Wind Speed 2 mph (SSW)    
Max Wind Speed 12 mph    
Max Gust Speed 21 mph    
Visibility 9 miles    
Events Rain    
T = Trace of Precipitation, MM = Missing Value Source: NWS Daily Summary

Daily Weather History Graph

Daily Weather History Graph

Search for Another Location

Airport:

Trip Planner

Search our weather history database for the weather conditions in past years. The results will help you decide how hot, cold, wet, or windy it might be!

Date:

Astronomy

Jan. 13, 2014 Rise Set
Actual Time 7:46 AM EST 5:28 PM EST
Civil Twilight 7:16 AM EST 5:57 PM EST
Nautical Twilight 6:43 AM EST 6:30 PM EST
Astronomical Twilight 6:11 AM EST 7:02 PM EST
Moon 3:42 PM EST (1/13) 5:34 AM EST (1/13)
Length of Visible Light 10h 40m
Length of Day
9h 42m
Waxing Gibbous, 95% of the Moon is Illuminated
Jan 13
Waxing Gibbous
Jan 15
Full
Jan 24
Last Quarter
Jan 30
New
Feb 6
First Quarter

Hourly Weather History & Observations

Time (EST) Temp. Windchill Dew Point Humidity Pressure Visibility Wind Dir Wind Speed Gust Speed Precip Events Conditions
12:15 AM 32.0 °F - 30.2 °F 93% 30.01 in 10.0 mi Calm Calm - N/A   Clear
12:35 AM 32.0 °F - 30.2 °F 93% 30.00 in 10.0 mi Calm Calm - N/A   Clear
12:55 AM 32.0 °F - 30.2 °F 93% 29.99 in 10.0 mi Calm Calm - N/A   Clear
1:15 AM 32.0 °F - 30.2 °F 93% 29.99 in 10.0 mi Calm Calm - N/A   Clear
1:35 AM 33.8 °F - 32.0 °F 93% 29.97 in 10.0 mi Calm Calm - N/A   Clear
1:55 AM 35.6 °F - 30.2 °F 81% 29.98 in 10.0 mi Calm Calm - N/A   Clear
2:15 AM 33.8 °F - 30.2 °F 87% 29.98 in 10.0 mi Calm Calm - N/A   Clear
2:35 AM 42.8 °F 41.1 °F 32.0 °F 66% 29.97 in 10.0 mi South 3.5 mph - N/A   Clear
2:55 AM 39.2 °F - 30.2 °F 70% 29.97 in 10.0 mi Calm Calm - N/A   Clear
3:15 AM 35.6 °F - 32.0 °F 87% 29.98 in 10.0 mi Calm Calm - N/A   Clear
3:35 AM 35.6 °F - 32.0 °F 87% 29.99 in 10.0 mi Calm Calm - N/A   Clear
3:55 AM 33.8 °F - 30.2 °F 87% 29.99 in 10.0 mi Calm Calm - N/A   Clear
4:15 AM 33.8 °F - 30.2 °F 87% 29.97 in 10.0 mi Calm Calm - N/A   Clear
4:35 AM 33.8 °F - 32.0 °F 93% 29.97 in 10.0 mi Calm Calm - N/A   Clear
4:55 AM 33.8 °F - 30.2 °F 87% 29.97 in 10.0 mi Calm Calm - N/A   Clear
5:15 AM 33.8 °F - 30.2 °F 87% 29.98 in 10.0 mi Calm Calm - N/A   Clear
5:35 AM 33.8 °F - 30.2 °F 87% 29.97 in 10.0 mi Calm Calm - N/A   Clear
5:55 AM 33.8 °F - 30.2 °F 87% 29.97 in 10.0 mi Calm Calm - N/A   Clear
6:15 AM 32.0 °F - 30.2 °F 93% 29.97 in 10.0 mi Calm Calm - N/A   Clear
6:35 AM 33.8 °F - 30.2 °F 87% 29.98 in 10.0 mi Calm Calm - N/A   Clear
6:55 AM 33.8 °F - 30.2 °F 87% 29.97 in 10.0 mi Calm Calm - N/A   Clear
7:15 AM 33.8 °F - 32.0 °F 93% 29.97 in 10.0 mi Calm Calm - N/A   Clear
7:35 AM 33.8 °F - 32.0 °F 93% 29.95 in 10.0 mi Calm Calm - N/A   Clear
7:55 AM 33.8 °F 29.6 °F 32.0 °F 93% 29.93 in 10.0 mi East 4.6 mph - N/A   Clear
8:15 AM 35.6 °F - 32.0 °F 87% 29.91 in 10.0 mi Calm Calm - N/A   Clear
8:35 AM 37.4 °F - 32.0 °F 81% 29.91 in 10.0 mi Calm Calm - N/A   Clear
8:55 AM 37.4 °F - 32.0 °F 81% 29.90 in 10.0 mi Calm Calm - N/A   Clear
9:15 AM 37.4 °F - 33.8 °F 87% 29.93 in 10.0 mi Calm Calm - N/A   Scattered Clouds
9:35 AM 41.0 °F - 33.8 °F 76% 29.91 in 10.0 mi Calm Calm - N/A   Mostly Cloudy
9:55 AM 41.0 °F - 33.8 °F 76% 29.94 in 10.0 mi Calm Calm - N/A   Overcast
10:15 AM 42.8 °F - 33.8 °F 70% 29.93 in 10.0 mi Calm Calm - N/A   Mostly Cloudy
10:35 AM 44.6 °F - 35.6 °F 71% 29.92 in 10.0 mi Calm Calm - N/A   Scattered Clouds
10:55 AM 46.4 °F - 33.8 °F 62% 29.91 in 10.0 mi Calm Calm - N/A   Clear
11:15 AM 51.8 °F - 32.0 °F 47% 29.89 in 10.0 mi South 3.5 mph - N/A   Scattered Clouds
11:35 AM 53.6 °F - 30.2 °F 41% 29.87 in 10.0 mi South 5.8 mph - N/A   Mostly Cloudy
11:55 AM 53.6 °F - 30.2 °F 41% 29.86 in 10.0 mi South 4.6 mph - N/A   Overcast
12:15 PM 53.6 °F - 32.0 °F 44% 29.84 in 10.0 mi SSW 4.6 mph - N/A   Overcast
12:35 PM 55.4 °F - 32.0 °F 41% 29.84 in 10.0 mi SSW 6.9 mph - N/A   Overcast
12:55 PM 55.4 °F - 33.8 °F 44% 29.84 in 10.0 mi SW 11.5 mph - N/A   Overcast
1:15 PM 55.4 °F - 33.8 °F 44% 29.84 in 10.0 mi SW 8.1 mph 16.1 mph N/A   Overcast
1:35 PM 55.4 °F - 35.6 °F 47% 29.82 in 10.0 mi SW 9.2 mph - N/A Rain Light Rain
1:55 PM 57.2 °F - 35.6 °F 44% 29.82 in 10.0 mi SW 8.1 mph - N/A   Overcast
2:15 PM 55.4 °F - 41.0 °F 58% 29.84 in 7.0 mi SSW 10.4 mph 20.7 mph N/A Rain Light Rain
2:35 PM 53.6 °F - 41.0 °F 62% 29.84 in 10.0 mi SSW 9.2 mph 20.7 mph N/A   Overcast
2:55 PM 53.6 °F - 42.8 °F 67% 29.84 in 10.0 mi SW 11.5 mph 19.6 mph N/A   Light Drizzle
3:15 PM 51.8 °F - 42.8 °F 71% 29.84 in 10.0 mi SSW 10.4 mph 18.4 mph N/A Rain Light Rain
3:35 PM 51.8 °F - 42.8 °F 71% 29.84 in 10.0 mi SSW 8.1 mph 16.1 mph N/A Rain Light Rain
3:55 PM 51.8 °F - 44.6 °F 76% 29.83 in 10.0 mi SSW 5.8 mph - N/A Rain Light Rain
4:15 PM 51.8 °F - 44.6 °F 76% 29.82 in 10.0 mi SW 5.8 mph - N/A Rain Light Rain
4:35 PM 51.8 °F - 44.6 °F 76% 29.82 in 10.0 mi SSW 5.8 mph - N/A Rain Light Rain
4:55 PM 51.8 °F - 44.6 °F 76% 29.82 in 7.0 mi SSW 6.9 mph - N/A Rain Light Rain
5:15 PM 51.8 °F - 46.4 °F 82% 29.81 in 5.0 mi SSE 5.8 mph - N/A Rain Light Rain
5:35 PM 51.8 °F - 46.4 °F 82% 29.81 in 7.0 mi South 4.6 mph - N/A Rain Light Rain
5:55 PM 51.8 °F - 46.4 °F 82% 29.82 in 7.0 mi SSW 9.2 mph - N/A   Light Drizzle
6:15 PM 51.8 °F - 46.4 °F 82% 29.82 in 7.0 mi SSW 8.1 mph - N/A   Light Drizzle
6:35 PM 51.8 °F - 46.4 °F 82% 29.81 in 7.0 mi South 4.6 mph - N/A   Light Drizzle
6:55 PM 51.8 °F - 46.4 °F 82% 29.80 in 7.0 mi South 5.8 mph - N/A Rain Light Rain
7:15 PM 51.8 °F - 46.4 °F 82% 29.80 in 10.0 mi SSW 4.6 mph - N/A   Light Drizzle
7:35 PM 51.8 °F - 46.4 °F 82% 29.79 in 7.0 mi South 5.8 mph - N/A Rain Light Rain
7:55 PM 51.8 °F - 46.4 °F 82% 29.80 in 7.0 mi South 4.6 mph - N/A Rain Light Rain
8:15 PM 51.8 °F - 46.4 °F 82% 29.80 in 3.0 mi SSW 5.8 mph - N/A Rain Light Rain
8:35 PM 51.8 °F - 46.4 °F 82% 29.80 in 5.0 mi SSW 8.1 mph - N/A Rain Light Rain
8:55 PM 51.8 °F - 46.4 °F 82% 29.80 in 10.0 mi South 4.6 mph - N/A Rain Light Rain
9:15 PM 51.8 °F - 46.4 °F 82% 29.79 in 10.0 mi SSW 5.8 mph - N/A Rain Light Rain
9:35 PM 51.8 °F - 46.4 °F 82% 29.79 in 7.0 mi SSW 4.6 mph - N/A Rain Light Rain
9:55 PM 51.8 °F - 46.4 °F 82% 29.79 in 5.0 mi SSW 4.6 mph - N/A Rain Light Rain
10:15 PM 51.8 °F - 46.4 °F 82% 29.79 in 10.0 mi SSW 3.5 mph - N/A Rain Light Rain
10:35 PM 51.8 °F - 46.4 °F 82% 29.78 in 5.0 mi SSW 4.6 mph - N/A Rain Light Rain
10:55 PM 51.8 °F - 46.4 °F 82% 29.78 in 10.0 mi SSW 4.6 mph - N/A Rain Light Rain
11:15 PM 51.8 °F - 46.4 °F 82% 29.78 in 10.0 mi SW 3.5 mph - N/A Rain Light Rain
11:35 PM 51.8 °F - 46.4 °F 82% 29.78 in 10.0 mi SSW 3.5 mph - N/A   Overcast
11:55 PM 51.8 °F - 46.4 °F 82% 29.77 in 10.0 mi SSW 4.6 mph - N/A   Overcast